• In France
  • List of Countries
  • For 7 days
  • Water Temperature
  • Satellite Maps
  • Weather Map
  • Weather Widgets
  • user-avatar
    Login

    Hourly Weather Sopron

    Today, 18 November, Saturday

    Time Temperature Precipitation Wind Pressure Humidity
    00:00 +2°C° 0 mm 3 mps 750 mmHg 81%
    01:00 +3°C° 0 mm 2 mps 750 mmHg 85%
    02:00 +2°C° 0 mm 3 mps 749 mmHg 84%
    03:00 +2°C° 0 mm 3 mps 749 mmHg 84%
    04:00 +1°C° 0 mm 4 mps 749 mmHg 83%
    05:00 +1°C° 0 mm 4 mps 749 mmHg 84%
    06:00 +1°C° 0 mm 4 mps 749 mmHg 85%
    07:00 +2°C° 0 mm 3 mps 749 mmHg 89%
    08:00 +3°C° 0 mm 3 mps 749 mmHg 84%
    09:00 +4°C° 0 mm 3 mps 749 mmHg 79%
    10:00 +5°C° 0 mm 3 mps 748 mmHg 73%
    11:00 +7°C° 0 mm 3 mps 748 mmHg 69%
    12:00 +8°C° 0 mm 3 mps 748 mmHg 65%
    13:00 +8°C° 0 mm 3 mps 747 mmHg 61%
    14:00 +8°C° 0 mm 2 mps 747 mmHg 65%
    15:00 +7°C° 0 mm 2 mps 746 mmHg 69%
    16:00 +7°C° 0 mm 1 mps 746 mmHg 73%
    17:00 +5°C° 0 mm 2 mps 746 mmHg 75%
    18:00 +5°C° 0 mm 2 mps 746 mmHg 77%
    19:00 +4°C° 0 mm 2 mps 746 mmHg 80%
    20:00 +4°C° 0 mm 2 mps 746 mmHg 81%
    21:00 +4°C° 0 mm 2 mps 746 mmHg 83%
    22:00 +3°C° 0 mm 2 mps 746 mmHg 84%
    23:00 +3°C° 0 mm 2 mps 745 mmHg 84%

    Tomorrow, 19 November, Sunday

    Time Temperature Precipitation Wind Pressure Humidity
    00:00 +3°C° 0 mm 2 mps 745 mmHg 84%
    01:00 +2°C° 0 mm 3 mps 745 mmHg 84%
    02:00 +2°C° 0 mm 3 mps 745 mmHg 82%
    03:00 +2°C° 0 mm 3 mps 744 mmHg 81%
    04:00 +2°C° 0 mm 3 mps 744 mmHg 80%
    05:00 +3°C° 0.1 mm 2 mps 744 mmHg 80%
    06:00 +3°C° 0.1 mm 2 mps 743 mmHg 80%
    07:00 +3°C° 0.1 mm 2 mps 743 mmHg 80%
    08:00 +4°C° 0.2 mm 2 mps 743 mmHg 77%
    09:00 +5°C° 0.2 mm 2 mps 743 mmHg 75%
    10:00 +4°C° 0.2 mm 3 mps 743 mmHg 73%
    11:00 +5°C° 0.3 mm 3 mps 743 mmHg 71%
    12:00 +5°C° 0.3 mm 3 mps 743 mmHg 70%
    13:00 +7°C° 0.3 mm 3 mps 743 mmHg 69%
    14:00 +5°C° 0.1 mm 3 mps 743 mmHg 70%
    15:00 +4°C° 0.1 mm 3 mps 743 mmHg 71%
    16:00 +4°C° 0.1 mm 3 mps 743 mmHg 72%
    17:00 +3°C° 0 mm 3 mps 743 mmHg 73%
    18:00 +3°C° 0 mm 3 mps 744 mmHg 73%
    19:00 +1°C° 0 mm 4 mps 744 mmHg 74%
    20:00 +1°C° 0 mm 4 mps 744 mmHg 74%
    21:00 +1°C° 0 mm 4 mps 744 mmHg 75%
    22:00 +1°C° 0 mm 4 mps 745 mmHg 75%
    23:00 +1°C° 0 mm 4 mps 745 mmHg 75%

    Day after tomorrow, 20 November, Monday

    Time Temperature Precipitation Wind Pressure Humidity
    00:00 +1°C° 0 mm 4 mps 745 mmHg 75%
    01:00 +1°C° 0 mm 5 mps 745 mmHg 76%
    02:00 +1°C° 0 mm 5 mps 745 mmHg 75%
    03:00 +1°C° 0 mm 5 mps 745 mmHg 75%
    04:00 +1°C° 0 mm 5 mps 745 mmHg 74%
    05:00 +1°C° 0.1 mm 5 mps 745 mmHg 74%
    06:00 +2°C° 0.1 mm 5 mps 746 mmHg 74%
    07:00 +2°C° 0.1 mm 5 mps 746 mmHg 74%
    08:00 +3°C° 0.1 mm 6 mps 747 mmHg 70%
    09:00 +3°C° 0.1 mm 7 mps 747 mmHg 65%
    10:00 +4°C° 0.1 mm 8 mps 747 mmHg 61%
    11:00 +5°C° 0 mm 8 mps 747 mmHg 59%
    12:00 +5°C° 0 mm 8 mps 747 mmHg 58%
    13:00 +5°C° 0 mm 8 mps 747 mmHg 56%
    14:00 +5°C° 0 mm 6 mps 747 mmHg 59%
    15:00 +5°C° 0 mm 5 mps 747 mmHg 63%
    16:00 +4°C° 0 mm 3 mps 747 mmHg 66%
    17:00 +4°C° 0 mm 3 mps 747 mmHg 67%
    18:00 +4°C° 0 mm 3 mps 747 mmHg 69%
    19:00 +3°C° 0 mm 3 mps 747 mmHg 70%
    20:00 +4°C° 0.3 mm 2 mps 747 mmHg 71%
    21:00 +4°C° 0.3 mm 2 mps 747 mmHg 73%
    22:00 +4°C° 0.3 mm 2 mps 747 mmHg 74%
    23:00 +4°C° 0.5 mm 2 mps 746 mmHg 75%

    21 November, Tuesday

    Time Temperature Precipitation Wind Pressure Humidity
    00:00 +3°C° 0.5 mm 3 mps 746 mmHg 76%
    01:00 +3°C° 0.5 mm 3 mps 745 mmHg 77%
    02:00 +3°C° 0.3 mm 4 mps 744 mmHg 77%
    03:00 +3°C° 0.3 mm 4 mps 744 mmHg 77%
    04:00 +3°C° 0.3 mm 4 mps 743 mmHg 77%
    05:00 +4°C° 0 mm 4 mps 743 mmHg 76%
    06:00 +4°C° 0 mm 4 mps 743 mmHg 75%
    07:00 +4°C° 0 mm 4 mps 743 mmHg 74%
    08:00 +5°C° 0.1 mm 5 mps 743 mmHg 74%
    09:00 +6°C° 0.1 mm 5 mps 744 mmHg 73%
    10:00 +7°C° 0.1 mm 5 mps 744 mmHg 72%
    11:00 +8°C° 0 mm 5 mps 744 mmHg 70%
    12:00 +9°C° 0 mm 5 mps 744 mmHg 69%
    13:00 +10°C° 0 mm 6 mps 744 mmHg 67%
    14:00 +9°C° 0 mm 5 mps 744 mmHg 70%
    15:00 +10°C° 0 mm 4 mps 744 mmHg 73%
    16:00 +8°C° 0 mm 4 mps 744 mmHg 75%
    17:00 +8°C° 0 mm 4 mps 744 mmHg 77%
    18:00 +8°C° 0 mm 3 mps 744 mmHg 78%
    19:00 +8°C° 0 mm 3 mps 745 mmHg 80%
    20:00 +8°C° 0.2 mm 3 mps 745 mmHg 81%
    21:00 +8°C° 0.2 mm 3 mps 745 mmHg 82%
    22:00 +8°C° 0.2 mm 3 mps 746 mmHg 83%
    23:00 +8°C° 0.2 mm 3 mps 746 mmHg 83%

    22 November, Wednesday

    Time Temperature Precipitation Wind Pressure Humidity
    00:00 +8°C° 0.2 mm 3 mps 746 mmHg 84%
    01:00 +8°C° 0.2 mm 3 mps 746 mmHg 84%
    02:00 +8°C° 0 mm 3 mps 746 mmHg 83%
    03:00 +8°C° 0 mm 3 mps 746 mmHg 82%
    04:00 +8°C° 0 mm 2 mps 746 mmHg 81%
    05:00 +7°C° 0 mm 2 mps 746 mmHg 81%
    06:00 +7°C° 0 mm 2 mps 746 mmHg 81%
    07:00 +8°C° 0 mm 1 mps 746 mmHg 81%
    08:00 +9°C° 0 mm 1 mps 747 mmHg 77%
    09:00 +10°C° 0 mm 1 mps 747 mmHg 73%
    10:00 +11°C° 0 mm 1 mps 747 mmHg 69%
    11:00 +12°C° 0 mm 1 mps 747 mmHg 66%
    12:00 +13°C° 0 mm 1 mps 747 mmHg 64%
    13:00 +14°C° 0 mm 2 mps 747 mmHg 62%
    14:00 +13°C° 0 mm 2 mps 747 mmHg 67%
    15:00 +12°C° 0 mm 2 mps 746 mmHg 73%
    16:00 +10°C° 0 mm 2 mps 746 mmHg 78%
    17:00 +9°C° 0 mm 2 mps 747 mmHg 81%
    18:00 +8°C° 0 mm 2 mps 747 mmHg 83%
    19:00 +9°C° 0 mm 1 mps 747 mmHg 85%
    20:00 +8°C° 0 mm 1 mps 747 mmHg 85%
    21:00 +8°C° 0 mm 1 mps 747 mmHg 85%
    22:00 +8°C° 0 mm 1 mps 747 mmHg 85%
    23:00 +8°C° 0 mm 1 mps 747 mmHg 84%

    23 November, Thursday

    Time Temperature Precipitation Wind Pressure Humidity
    00:00 +8°C° 0 mm 1 mps 747 mmHg 84%
    01:00 +7°C° 0 mm 1 mps 747 mmHg 84%
    02:00 +7°C° 0 mm 1 mps 747 mmHg 85%
    03:00 +6°C° 0 mm 2 mps 747 mmHg 86%
    04:00 +5°C° 0 mm 2 mps 747 mmHg 86%
    05:00 +5°C° 0 mm 2 mps 747 mmHg 87%
    06:00 +5°C° 0 mm 2 mps 747 mmHg 88%
    07:00 +5°C° 0 mm 2 mps 747 mmHg 88%
    08:00 +6°C° 0 mm 2 mps 747 mmHg 85%
    09:00 +7°C° 0 mm 2 mps 747 mmHg 82%
    10:00 +8°C° 0 mm 2 mps 747 mmHg 79%
    11:00 +9°C° 0 mm 2 mps 747 mmHg 76%
    12:00 +10°C° 0 mm 2 mps 747 mmHg 73%
    13:00 +12°C° 0 mm 2 mps 747 mmHg 71%
    14:00 +10°C° 0 mm 2 mps 747 mmHg 75%
    15:00 +10°C° 0 mm 1 mps 747 mmHg 80%
    16:00 +9°C° 0 mm 1 mps 748 mmHg 85%
    17:00 +9°C° 0 mm 1 mps 748 mmHg 87%
    18:00 +8°C° 0 mm 1 mps 748 mmHg 89%
    19:00 +8°C° 0 mm 1 mps 749 mmHg 90%
    20:00 +7°C° 0 mm 1 mps 749 mmHg 91%
    21:00 +7°C° 0 mm 1 mps 750 mmHg 91%
    22:00 +7°C° 0 mm 1 mps 750 mmHg 91%
    23:00 +7°C° 0 mm 1 mps 750 mmHg 90%
    Show more